Location: Bouillancy
(49.1149°N, 2.9308°E)
Time: 07:58:00
(UTC+00:00)

Cosmos 2251 Rocket - Pass Details

Date: 30 September 2020
Orbit: 765 x 792 km, 74.0° (Epoch: 29 October)

Event Time Altitude Azimuth Distance (km) Brightness Sun altitude
Rises 18:24:05 0° 341° (NNW) 3,297 7.2 -9.9°
Reaches altitude 10° 18:26:41 10° 350° (N) 2,361 6.3 -10.4°
Maximum altitude 18:31:37 36° 56° (NE) 1,233 4.2 -11.2°
Enters shadow 18:35:38 14° 118° (ESE) 2,046 5.1 -11.8°
